User: anonymous   Login
Location: Avebury
(53.1487°N, 106.9774°W)
Time: 18:48:31
(UTC+00:00)
Language:

ISS - Orbit

View from above orbital plane
View from above orbital plane
View from above satellite
View from above satellite

Ground track
Ground track

The orbit data is extracted from the following two-line orbital elements,

1 25544U 98067A   22138.48291186  .00009938  00000-0  18505-3 0  9996
2 25544  51.6428 123.6928 0004981 131.9577  12.1536 15.49498859340573
Epoch (UTC): 18 May 2022 11:35:23
Eccentricity: 0.0004981
inclination: 51.6428°
perigee height: 415 km
apogee height: 421 km
right ascension of ascending node: 123.6928°
argument of perigee: 131.9577°
revolutions per day: 15.49498859
mean anomaly at epoch: 12.1536°
orbit number at epoch: 34057

The dashed part of the orbit path shows where the satellite is in the earth's shadow,  

DLR